カタログに戻る

STARLINK-34178

運用中通信VLEO
NORAD 64096·PAYLOAD·🇺🇸 United States

打ち上げ May 23, 2025 から Vandenberg Space Force Base

Loading…

次のパス (今後24時間)

TLE

最新Source: CelesTrak SupGP

元期: Sep 15, 2026, 02:19 UTC

1 64096C 25110A   26258.09701389 -.00039920  00000+0 -12836-2 0  2588
2 64096  53.1587 226.3012 0001418  86.8691 186.7615 15.31724797    15

AllMySatでSTARLINK-34178をリアルタイム追跡

Download on the App Store